Flag for Canada Weather past 2 weeks in Barrie, Ontario, Canada

Now
5 °F

Passing clouds.


Feels Like: -8 °F
Forecast: 0 / 20 °F
Wind: 8 mph from North

Location: Borden

Current Time: Feb 1, 2015 at 7:06:38 AM

Latest Report: Feb 1, 2015 at 6:00 AM


Visibility: 9 mi

Pressure: 30.31 "Hg

Humidity: 78%

Dew point: 0 °F

Location of BarrieLocation

Historic Weather in Barrie — Graph

°F

Barrie temperature yesterday

Maximum temperature yesterday: 27 °F (at 11:00 PM)
Minimum temperature yesterday: -6 °F (at 2:01 AM)
Average temperature yesterday: 14 °F

Past Weeks' High & Low Weather Summary

 TemperatureHumidityPressure
High43 °F (Jan 18, 1:00 AM)100% (Jan 18, 7:46 AM)30.40 "Hg (Jan 18, 7:46 AM)
Low-17 °F (Jan 21, 4:00 AM)41% (Jan 26, 5:00 PM)29.42 "Hg (Jan 24, 3:01 PM)
Average15 °F78%30.03 "Hg
* Reported Jan 17 6:00 AM — Feb 1 6:00 AM, Barrie, Weather by CustomWeather, © 2014

Note: Actual official high and low records may vary slightly from our data, if they occured in-between our weather recording intervals... More about our weather records

Advertising

Barrie weather history for previous 24 hours

 ConditionsComfort  
Time TempWeatherWind HumidityBarometerVisibility
6:00 AM
Feb 1
5 °FPassing clouds.8 mph78%30.31 "Hg9 mi
5:57 AM5 °FPassing clouds.8 mph78%30.26 "Hg9 mi
5:01 AM10 °FOvercast.12 mph79%30.23 "Hg8 mi
4:00 AM16 °FOvercast.8 mph86%30.23 "Hg5 mi
3:00 AM19 °FOvercast.12 mph79%30.21 "Hg9 mi
2:54 AM19 °FOvercast.9 mph86%30.17 "Hg7 mi
2:03 AM23 °FLight snow. Overcast.10 mph93%30.15 "Hg1 mi
1:00 AM25 °FLight snow. Overcast.10 mph86%30.17 "Hg4 mi
12:00 AM27 °FLight snow. Overcast.10 mph86%30.16 "Hg2 mi
11:52 PM
Jan 31
27 °FLight snow. Overcast.9 mph86%30.12 "Hg2 mi
11:00 PM27 °FOvercast.8 mph86%30.15 "Hg9 mi
10:00 PM25 °FLight snow. Overcast.6 mph93%30.15 "Hg6 mi
9:00 PM25 °FLight snow. Overcast.9 mph93%30.16 "Hg6 mi
8:00 PM25 °FOvercast.7 mph86%30.17 "Hg9 mi
7:00 PM25 °FOvercast.10 mph80%30.16 "Hg9 mi
6:00 PM25 °FOvercast.7 mph74%30.17 "Hg9 mi
5:00 PM25 °FMostly cloudy.8 mph69%30.17 "Hg9 mi
4:00 PM23 °FMostly cloudy.7 mph74%30.17 "Hg9 mi
3:00 PM23 °FOvercast.8 mph68%30.19 "Hg9 mi
2:00 PM23 °FOvercast.3 mph63%30.20 "Hg9 mi
1:00 PM21 °FOvercast.7 mph68%30.24 "Hg9 mi
12:00 PM21 °FOvercast.2 mph58%30.25 "Hg9 mi
11:00 AM18 °FScattered clouds.8 mph68%30.29 "Hg9 mi
10:00 AM12 °FOvercast.8 mph85%30.29 "Hg9 mi
9:00 AM9 °FOvercast.5 mph85%30.31 "Hg9 mi
8:00 AM7 °FOvercast.2 mph85%30.32 "Hg9 mi
7:00 AM5 °FOvercast.2 mph85%30.32 "Hg9 mi
Weather by CustomWeather, © 2014

See weather overviewHow to use our weather pages